When you browse on this site, cookies collect data to enhance your experience and personalize the content and advertising you see.
Visit our Privacy Policy to learn more. By continuing to use the site, you agree to this use of cookies and data.
  • In Hungary
  • List of Countries
  • For 7 days
  • Water Temperature
  • Satellite Maps
  • Weather Map
  • News
  • Weather Widgets
  • user-avatar
    Login

    Hourly Weather Lennestadt

    Today, 15 February, Friday

    Time Temperature Precipitation Wind Pressure Humidity
    00:00 +4°C° 0 mm 1 mps 742 mmHg 59%
    01:00 +3°C° 0 mm 2 mps 742 mmHg 55%
    02:00 +4°C° 0 mm 1 mps 742 mmHg 57%
    03:00 +4°C° 0 mm 1 mps 742 mmHg 58%
    04:00 +4°C° 0 mm 1 mps 741 mmHg 60%
    05:00 +4°C° 0 mm 1 mps 741 mmHg 61%
    06:00 +3°C° 0 mm 1 mps 741 mmHg 63%
    07:00 +3°C° 0 mm 2 mps 741 mmHg 60%
    08:00 +4°C° 0 mm 2 mps 741 mmHg 59%
    09:00 +5°C° 0 mm 2 mps 741 mmHg 58%
    10:00 +7°C° 0 mm 2 mps 741 mmHg 57%
    11:00 +8°C° 0 mm 2 mps 741 mmHg 55%
    12:00 +10°C° 0 mm 2 mps 741 mmHg 53%
    13:00 +14°C° 0 mm 1 mps 741 mmHg 50%
    14:00 +13°C° 0 mm 2 mps 741 mmHg 52%
    15:00 +13°C° 0 mm 2 mps 740 mmHg 54%
    16:00 +12°C° 0 mm 2 mps 740 mmHg 57%
    17:00 +9°C° 0 mm 2 mps 740 mmHg 61%
    18:00 +7°C° 0 mm 2 mps 739 mmHg 65%
    19:00 +5°C° 0 mm 2 mps 739 mmHg 70%
    20:00 +5°C° 0 mm 2 mps 739 mmHg 70%
    21:00 +5°C° 0 mm 2 mps 739 mmHg 70%
    22:00 +5°C° 0 mm 2 mps 738 mmHg 70%
    23:00 +4°C° 0 mm 2 mps 738 mmHg 71%

    Tomorrow, 16 February, Saturday

    Time Temperature Precipitation Wind Pressure Humidity
    00:00 +4°C° 0 mm 2 mps 738 mmHg 72%
    01:00 +4°C° 0 mm 2 mps 738 mmHg 73%
    02:00 +4°C° 0 mm 2 mps 738 mmHg 73%
    03:00 +3°C° 0 mm 2 mps 738 mmHg 73%
    04:00 +3°C° 0 mm 2 mps 738 mmHg 74%
    05:00 +3°C° 0 mm 2 mps 737 mmHg 74%
    06:00 +3°C° 0 mm 2 mps 737 mmHg 75%
    07:00 +2°C° 0 mm 2 mps 737 mmHg 76%
    08:00 +4°C° 0 mm 2 mps 737 mmHg 71%
    09:00 +5°C° 0 mm 2 mps 737 mmHg 67%
    10:00 +7°C° 0 mm 2 mps 737 mmHg 63%
    11:00 +8°C° 0 mm 2 mps 737 mmHg 60%
    12:00 +9°C° 0 mm 2 mps 737 mmHg 57%
    13:00 +12°C° 0 mm 2 mps 737 mmHg 54%
    14:00 +12°C° 0 mm 2 mps 737 mmHg 57%
    15:00 +12°C° 0 mm 2 mps 737 mmHg 60%
    16:00 +12°C° 0 mm 2 mps 737 mmHg 62%
    17:00 +10°C° 0 mm 1 mps 737 mmHg 70%
    18:00 +8°C° 0 mm 1 mps 736 mmHg 78%
    19:00 +6°C° 0 mm 1 mps 736 mmHg 86%
    20:00 +6°C° 0 mm 1 mps 736 mmHg 87%
    21:00 +6°C° 0 mm 1 mps 736 mmHg 87%
    22:00 +5°C° 0 mm 1 mps 736 mmHg 88%
    23:00 +5°C° 0 mm 1 mps 736 mmHg 87%

    Day after tomorrow, 17 February, Sunday

    Time Temperature Precipitation Wind Pressure Humidity
    00:00 +5°C° 0 mm 1 mps 736 mmHg 86%
    01:00 +4°C° 0 mm 1 mps 736 mmHg 86%
    02:00 +4°C° 0 mm 1 mps 736 mmHg 85%
    03:00 +4°C° 0 mm 1 mps 735 mmHg 85%
    04:00 +4°C° 0 mm 1 mps 735 mmHg 85%
    05:00 +3°C° 0 mm 1 mps 735 mmHg 85%
    06:00 +3°C° 0 mm 1 mps 735 mmHg 85%
    07:00 +3°C° 0 mm 1 mps 735 mmHg 85%
    08:00 +3°C° 0 mm 2 mps 735 mmHg 79%
    09:00 +5°C° 0 mm 2 mps 735 mmHg 73%
    10:00 +6°C° 0 mm 2 mps 735 mmHg 66%
    11:00 +8°C° 0 mm 2 mps 735 mmHg 63%
    12:00 +9°C° 0 mm 2 mps 735 mmHg 59%
    13:00 +11°C° 0 mm 3 mps 734 mmHg 56%
    14:00 +11°C° 0 mm 3 mps 734 mmHg 58%
    15:00 +11°C° 0 mm 3 mps 734 mmHg 59%
    16:00 +10°C° 0 mm 3 mps 733 mmHg 61%
    17:00 +9°C° 0 mm 2 mps 733 mmHg 68%
    18:00 +7°C° 0 mm 2 mps 733 mmHg 75%
    19:00 +5°C° 0 mm 2 mps 733 mmHg 83%
    20:00 +5°C° 0 mm 2 mps 733 mmHg 83%
    21:00 +5°C° 0 mm 2 mps 733 mmHg 83%
    22:00 +4°C° 0 mm 2 mps 733 mmHg 84%
    23:00 +4°C° 0 mm 2 mps 733 mmHg 84%

    18 February, Monday

    Time Temperature Precipitation Wind Pressure Humidity
    00:00 +5°C° 0 mm 1 mps 733 mmHg 84%
    01:00 +4°C° 0 mm 1 mps 733 mmHg 84%
    02:00 +4°C° 0 mm 1 mps 733 mmHg 84%
    03:00 +4°C° 0 mm 1 mps 733 mmHg 84%
    04:00 +4°C° 0 mm 1 mps 733 mmHg 83%
    05:00 +4°C° 0 mm 1 mps 732 mmHg 83%
    06:00 +3°C° 0 mm 1 mps 732 mmHg 83%
    07:00 +3°C° 0 mm 1 mps 732 mmHg 83%
    08:00 +4°C° 0 mm 2 mps 732 mmHg 77%
    09:00 +5°C° 0 mm 2 mps 733 mmHg 72%
    10:00 +7°C° 0 mm 2 mps 733 mmHg 66%
    11:00 +8°C° 0 mm 2 mps 732 mmHg 63%
    12:00 +10°C° 0 mm 2 mps 732 mmHg 59%
    13:00 +12°C° 0 mm 2 mps 732 mmHg 56%
    14:00 +12°C° 0 mm 2 mps 732 mmHg 59%
    15:00 +10°C° 0 mm 3 mps 731 mmHg 62%
    16:00 +10°C° 0 mm 3 mps 731 mmHg 65%
    17:00 +9°C° 0 mm 3 mps 731 mmHg 70%
    18:00 +7°C° 0 mm 2 mps 731 mmHg 74%
    19:00 +5°C° 0 mm 2 mps 731 mmHg 79%
    20:00 +5°C° 0 mm 2 mps 731 mmHg 80%
    21:00 +4°C° 0 mm 2 mps 731 mmHg 82%
    22:00 +4°C° 0 mm 2 mps 731 mmHg 83%
    23:00 +4°C° 0 mm 2 mps 731 mmHg 85%

    19 February, Tuesday

    Time Temperature Precipitation Wind Pressure Humidity
    00:00 +3°C° 0 mm 2 mps 731 mmHg 87%
    01:00 +3°C° 0 mm 2 mps 731 mmHg 90%
    02:00 +3°C° 0 mm 2 mps 731 mmHg 90%
    03:00 +3°C° 0 mm 2 mps 731 mmHg 91%
    04:00 +3°C° 0 mm 2 mps 730 mmHg 92%
    05:00 +3°C° 0 mm 2 mps 731 mmHg 92%
    06:00 +3°C° 0 mm 2 mps 731 mmHg 93%
    07:00 +2°C° 0 mm 2 mps 731 mmHg 93%
    08:00 +3°C° 0.2 mm 2 mps 731 mmHg 93%
    09:00 +4°C° 0.2 mm 2 mps 731 mmHg 93%
    10:00 +5°C° 0.2 mm 2 mps 732 mmHg 93%
    11:00 +5°C° 0.3 mm 2 mps 732 mmHg 92%
    12:00 +5°C° 0.3 mm 2 mps 732 mmHg 92%
    13:00 +5°C° 0.3 mm 2 mps 732 mmHg 92%
    14:00 +5°C° 0 mm 3 mps 732 mmHg 87%
    15:00 +7°C° 0 mm 3 mps 732 mmHg 82%
    16:00 +7°C° 0 mm 3 mps 732 mmHg 77%
    17:00 +5°C° 0 mm 3 mps 732 mmHg 82%
    18:00 +5°C° 0 mm 2 mps 732 mmHg 87%
    19:00 +5°C° 0 mm 1 mps 733 mmHg 92%
    20:00 +4°C° 0 mm 1 mps 733 mmHg 92%
    21:00 +4°C° 0 mm 1 mps 733 mmHg 93%
    22:00 +3°C° 0 mm 1 mps 734 mmHg 94%
    23:00 +3°C° 0 mm 1 mps 734 mmHg 95%

    20 February, Wednesday

    Time Temperature Precipitation Wind Pressure Humidity
    00:00 +3°C° 0 mm 1 mps 734 mmHg 96%
    01:00 +3°C° 0 mm 1 mps 734 mmHg 96%
    02:00 +3°C° 0 mm 1 mps 734 mmHg 96%
    03:00 +2°C° 0 mm 2 mps 734 mmHg 96%
    04:00 +2°C° 0 mm 2 mps 734 mmHg 96%
    05:00 +2°C° 0 mm 2 mps 734 mmHg 96%
    06:00 +2°C° 0 mm 2 mps 734 mmHg 96%
    07:00 +2°C° 0 mm 2 mps 734 mmHg 95%
    08:00 +3°C° 0 mm 2 mps 734 mmHg 92%
    09:00 +4°C° 0 mm 2 mps 735 mmHg 88%
    10:00 +4°C° 0 mm 3 mps 735 mmHg 84%
    11:00 +5°C° 0 mm 3 mps 735 mmHg 79%
    12:00 +8°C° 0 mm 3 mps 735 mmHg 74%
    13:00 +8°C° 0 mm 4 mps 735 mmHg 69%
    14:00 +9°C° 0 mm 3 mps 735 mmHg 68%
    15:00 +9°C° 0 mm 3 mps 735 mmHg 68%
    16:00 +9°C° 0 mm 3 mps 735 mmHg 67%
    17:00 +8°C° 0 mm 3 mps 735 mmHg 72%
    18:00 +7°C° 0 mm 2 mps 735 mmHg 78%
    19:00 +6°C° 0 mm 2 mps 735 mmHg 83%
    20:00 +5°C° 0.1 mm 2 mps 735 mmHg 85%
    21:00 +5°C° 0.1 mm 2 mps 736 mmHg 86%
    22:00 +5°C° 0.1 mm 2 mps 736 mmHg 87%
    23:00 +5°C° 0.1 mm 2 mps 736 mmHg 89%
    Show more